{"data":{"norad_id":59575,"epoch":"2026-09-21T06:33:43.880256Z","epoch_age_seconds":101361,"freshness":"FRESH","line1":"1 59575U 24076M   26264.27342454 -.00000336  00000+0 -26385-5 0  9993","line2":"2 59575  42.9973 341.0708 0003063 162.2933 197.8026 15.27580822136450","mean_motion":15.27580822,"eccentricity":0.0003063,"inclination_deg":42.9973,"raan_deg":341.0708,"arg_perigee_deg":162.2933,"mean_anomaly_deg":197.8026,"bstar":-2.6385e-6,"rev_number":13645,"period_min":94.266697988174,"perigee_km":480.94505412974,"apogee_km":485.14821522435,"semimajor_km":6861.183634677,"source":"CELESTRAK","updated_at":"2026-09-22T09:00:49.002860Z"}}